When you browse on this site, cookies collect data to enhance your experience and personalize the content and advertising you see.
Visit our Privacy Policy to learn more. By continuing to use the site, you agree to this use of cookies and data.
  • In Österreich
  • Länderverzeichnis
  • Für 7 Tage
  • Wassertemperatur
  • Satellitenkarten
  • Wetterkarte
  • News
  • Widgets
  • user-avatar
    Anmelden

    Stündliche Wetter Rabka-Zdrój

    Heute, 24 April, Mittwoch

    Zeit Temperatur Niederschläge Wind Luftdruck Luftfeuchtigkeit
    00:00 +5°C° 0 mm 3 m/S 706 mmHg 93%
    01:00 +7°C° 0 mm 3 m/S 706 mmHg 92%
    02:00 +7°C° 0 mm 3 m/S 706 mmHg 93%
    03:00 +5°C° 0 mm 3 m/S 706 mmHg 94%
    04:00 +5°C° 0 mm 3 m/S 706 mmHg 94%
    05:00 +7°C° 0 mm 3 m/S 706 mmHg 91%
    06:00 +8°C° 0 mm 3 m/S 706 mmHg 87%
    07:00 +9°C° 0 mm 3 m/S 707 mmHg 85%
    08:00 +8°C° 0.1 mm 4 m/S 707 mmHg 82%
    09:00 +10°C° 0.1 mm 4 m/S 707 mmHg 79%
    10:00 +11°C° 0.1 mm 4 m/S 707 mmHg 76%
    11:00 +12°C° 0 mm 4 m/S 707 mmHg 74%
    12:00 +13°C° 0 mm 4 m/S 707 mmHg 72%
    13:00 +14°C° 0 mm 4 m/S 707 mmHg 71%
    14:00 +13°C° 0 mm 4 m/S 707 mmHg 73%
    15:00 +13°C° 0 mm 4 m/S 707 mmHg 75%
    16:00 +13°C° 0 mm 4 m/S 707 mmHg 78%
    17:00 +12°C° 0 mm 4 m/S 706 mmHg 82%
    18:00 +12°C° 0 mm 3 m/S 706 mmHg 87%
    19:00 +12°C° 0 mm 2 m/S 706 mmHg 91%
    20:00 +12°C° 0 mm 2 m/S 706 mmHg 93%
    21:00 +10°C° 0 mm 2 m/S 706 mmHg 95%
    22:00 +10°C° 0 mm 2 m/S 706 mmHg 96%
    23:00 +10°C° 0 mm 2 m/S 706 mmHg 96%

    Morgen, 25 April, Donnerstag

    Zeit Temperatur Niederschläge Wind Luftdruck Luftfeuchtigkeit
    00:00 +10°C° 0 mm 2 m/S 706 mmHg 97%
    01:00 +10°C° 0 mm 2 m/S 706 mmHg 97%
    02:00 +10°C° 0 mm 2 m/S 706 mmHg 96%
    03:00 +10°C° 0 mm 2 m/S 706 mmHg 96%
    04:00 +10°C° 0 mm 3 m/S 706 mmHg 96%
    05:00 +11°C° 0 mm 3 m/S 706 mmHg 92%
    06:00 +12°C° 0 mm 3 m/S 707 mmHg 89%
    07:00 +12°C° 0 mm 3 m/S 707 mmHg 85%
    08:00 +13°C° 0 mm 3 m/S 707 mmHg 83%
    09:00 +13°C° 0 mm 3 m/S 707 mmHg 80%
    10:00 +14°C° 0 mm 3 m/S 708 mmHg 78%
    11:00 +14°C° 0 mm 3 m/S 708 mmHg 77%
    12:00 +14°C° 0 mm 3 m/S 708 mmHg 76%
    13:00 +16°C° 0 mm 3 m/S 708 mmHg 75%
    14:00 +17°C° 0 mm 3 m/S 707 mmHg 71%
    15:00 +18°C° 0 mm 3 m/S 707 mmHg 67%
    16:00 +19°C° 0 mm 3 m/S 707 mmHg 63%
    17:00 +17°C° 0 mm 3 m/S 707 mmHg 72%
    18:00 +16°C° 0 mm 2 m/S 706 mmHg 80%
    19:00 +14°C° 0 mm 2 m/S 706 mmHg 88%
    20:00 +13°C° 0 mm 2 m/S 706 mmHg 90%
    21:00 +13°C° 0 mm 2 m/S 706 mmHg 92%
    22:00 +12°C° 0 mm 2 m/S 706 mmHg 94%
    23:00 +12°C° 0 mm 2 m/S 705 mmHg 94%

    übermorgen, 26 April, Freitag

    Zeit Temperatur Niederschläge Wind Luftdruck Luftfeuchtigkeit
    00:00 +12°C° 0 mm 2 m/S 705 mmHg 95%
    01:00 +10°C° 0 mm 2 m/S 705 mmHg 95%
    02:00 +10°C° 0 mm 2 m/S 705 mmHg 95%
    03:00 +10°C° 0 mm 2 m/S 704 mmHg 95%
    04:00 +10°C° 0 mm 2 m/S 704 mmHg 95%
    05:00 +11°C° 0 mm 3 m/S 704 mmHg 90%
    06:00 +12°C° 0 mm 3 m/S 704 mmHg 84%
    07:00 +13°C° 0 mm 4 m/S 704 mmHg 78%
    08:00 +15°C° 0 mm 4 m/S 704 mmHg 73%
    09:00 +17°C° 0 mm 4 m/S 705 mmHg 68%
    10:00 +17°C° 0 mm 5 m/S 705 mmHg 62%
    11:00 +20°C° 0 mm 5 m/S 705 mmHg 57%
    12:00 +21°C° 0 mm 6 m/S 705 mmHg 52%
    13:00 +23°C° 0 mm 6 m/S 705 mmHg 47%
    14:00 +22°C° 0 mm 6 m/S 704 mmHg 47%
    15:00 +22°C° 0 mm 6 m/S 704 mmHg 47%
    16:00 +22°C° 0 mm 6 m/S 704 mmHg 47%
    17:00 +20°C° 0 mm 5 m/S 703 mmHg 56%
    18:00 +18°C° 0 mm 3 m/S 703 mmHg 66%
    19:00 +16°C° 0 mm 2 m/S 703 mmHg 75%
    20:00 +15°C° 0.1 mm 2 m/S 703 mmHg 79%
    21:00 +14°C° 0.1 mm 2 m/S 703 mmHg 83%
    22:00 +14°C° 0.1 mm 2 m/S 704 mmHg 87%
    23:00 +13°C° 0 mm 2 m/S 704 mmHg 89%

    27 April, Samstag

    Zeit Temperatur Niederschläge Wind Luftdruck Luftfeuchtigkeit
    00:00 +13°C° 0 mm 2 m/S 704 mmHg 90%
    01:00 +12°C° 0 mm 1 m/S 704 mmHg 92%
    02:00 +12°C° 0 mm 1 m/S 704 mmHg 93%
    03:00 +11°C° 0 mm 1 m/S 704 mmHg 94%
    04:00 +10°C° 0 mm 1 m/S 704 mmHg 96%
    05:00 +11°C° 0.2 mm 1 m/S 704 mmHg 94%
    06:00 +11°C° 0.2 mm 1 m/S 704 mmHg 92%
    07:00 +12°C° 0.2 mm 1 m/S 704 mmHg 91%
    08:00 +12°C° 0.2 mm 1 m/S 705 mmHg 89%
    09:00 +13°C° 0.2 mm 1 m/S 705 mmHg 88%
    10:00 +13°C° 0.2 mm 1 m/S 705 mmHg 86%
    11:00 +12°C° 2.7 mm 1 m/S 704 mmHg 90%
    12:00 +11°C° 2.7 mm 1 m/S 704 mmHg 93%
    13:00 +10°C° 2.7 mm 1 m/S 704 mmHg 97%
    14:00 +10°C° 1.6 mm 1 m/S 703 mmHg 96%
    15:00 +9°C° 1.6 mm 2 m/S 703 mmHg 95%
    16:00 +8°C° 1.6 mm 2 m/S 703 mmHg 95%
    17:00 +8°C° 0.1 mm 2 m/S 703 mmHg 95%
    18:00 +9°C° 0.1 mm 1 m/S 703 mmHg 95%
    19:00 +8°C° 0.1 mm 1 m/S 703 mmHg 96%
    20:00 +8°C° 0.1 mm 1 m/S 703 mmHg 96%
    21:00 +8°C° 0.1 mm 1 m/S 703 mmHg 96%
    22:00 +8°C° 0.1 mm 1 m/S 704 mmHg 95%
    23:00 +8°C° 0.1 mm 1 m/S 704 mmHg 96%

    28 April, Sonntag

    Zeit Temperatur Niederschläge Wind Luftdruck Luftfeuchtigkeit
    00:00 +8°C° 0.1 mm 1 m/S 704 mmHg 96%
    01:00 +7°C° 0.1 mm 1 m/S 704 mmHg 96%
    02:00 +7°C° 0.1 mm 1 m/S 704 mmHg 96%
    03:00 +8°C° 0.1 mm 1 m/S 704 mmHg 96%
    04:00 +8°C° 0.1 mm 1 m/S 704 mmHg 96%
    05:00 +8°C° 0.1 mm 1 m/S 704 mmHg 94%
    06:00 +9°C° 0.1 mm 1 m/S 704 mmHg 93%
    07:00 +8°C° 0.1 mm 2 m/S 705 mmHg 92%
    08:00 +9°C° 0.2 mm 2 m/S 705 mmHg 89%
    09:00 +10°C° 0.2 mm 2 m/S 705 mmHg 86%
    10:00 +10°C° 0.2 mm 2 m/S 705 mmHg 83%
    11:00 +11°C° 0.1 mm 3 m/S 705 mmHg 79%
    12:00 +11°C° 0.1 mm 3 m/S 705 mmHg 76%
    13:00 +12°C° 0.1 mm 3 m/S 705 mmHg 72%
    14:00 +12°C° 0 mm 3 m/S 705 mmHg 70%
    15:00 +12°C° 0 mm 3 m/S 705 mmHg 69%
    16:00 +12°C° 0 mm 3 m/S 705 mmHg 67%
    17:00 +11°C° 0 mm 3 m/S 705 mmHg 75%
    18:00 +9°C° 0 mm 2 m/S 705 mmHg 83%
    19:00 +8°C° 0 mm 2 m/S 705 mmHg 92%
    20:00 +8°C° 0 mm 1 m/S 705 mmHg 94%
    21:00 +8°C° 0 mm 1 m/S 705 mmHg 96%
    22:00 +7°C° 0 mm 1 m/S 705 mmHg 97%
    23:00 +7°C° 0 mm 1 m/S 705 mmHg 97%

    29 April, Montag

    Zeit Temperatur Niederschläge Wind Luftdruck Luftfeuchtigkeit
    00:00 +8°C° 0 mm 1 m/S 705 mmHg 97%
    01:00 +8°C° 0 mm 1 m/S 705 mmHg 97%
    02:00 +8°C° 0.1 mm 1 m/S 705 mmHg 97%
    03:00 +7°C° 0.1 mm 2 m/S 705 mmHg 97%
    04:00 +7°C° 0.1 mm 2 m/S 705 mmHg 96%
    05:00 +7°C° 0.1 mm 2 m/S 705 mmHg 94%
    06:00 +7°C° 0.1 mm 2 m/S 705 mmHg 91%
    07:00 +8°C° 0.1 mm 2 m/S 705 mmHg 88%
    08:00 +8°C° 0.1 mm 2 m/S 705 mmHg 85%
    09:00 +9°C° 0.1 mm 2 m/S 705 mmHg 81%
    10:00 +10°C° 0.1 mm 2 m/S 705 mmHg 78%
    11:00 +10°C° 0 mm 2 m/S 705 mmHg 74%
    12:00 +12°C° 0 mm 2 m/S 705 mmHg 71%
    13:00 +13°C° 0 mm 2 m/S 705 mmHg 68%
    14:00 +13°C° 0 mm 2 m/S 704 mmHg 67%
    15:00 +14°C° 0 mm 2 m/S 704 mmHg 67%
    16:00 +14°C° 0 mm 1 m/S 704 mmHg 66%
    17:00 +12°C° 0 mm 1 m/S 704 mmHg 74%
    18:00 +11°C° 0 mm 1 m/S 704 mmHg 82%
    19:00 +10°C° 0 mm 1 m/S 703 mmHg 90%
    20:00 +9°C° 0 mm 1 m/S 703 mmHg 92%
    21:00 +8°C° 0 mm 1 m/S 704 mmHg 94%
    22:00 +8°C° 0 mm 1 m/S 704 mmHg 96%
    23:00 +7°C° 0 mm 1 m/S 703 mmHg 96%
    Mehr zeigen